Weather History for Lee's Summit, MO

Change the Weather History Date:

Friday, November 30, 2012

  Actual Average (KMKC) Record (KMKC)
Temperature  
Mean Temperature 54 °F -  
Max Temperature 63 °F 47 °F 63 °F (2003)
Min Temperature 44 °F 32 °F 17 °F (2006)
Degree Days  
Heating Degree Days 12    
Growing Degree Days 4 (Base 50)    
Moisture  
Dew Point 38 °F    
Average Humidity 60    
Maximum Humidity 80    
Minimum Humidity 40    
Precipitation  
Precipitation 0.00 in - - ()
Sea Level Pressure  
Sea Level Pressure 30.05 in    
Wind  
Wind Speed 9 mph (SSW)    
Max Wind Speed 13 mph    
Max Gust Speed -    
Visibility 10 miles    
Events      
Averages and records for this station are not official NWS values.
T = Trace of Precipitation, MM = Missing Value Source: NWS Daily Summary

Daily Weather History Graph

Daily Weather History Graph

Search for Another Location

Airport:

Trip Planner

Search our weather history database for the weather conditions in past years. The results will help you decide how hot, cold, wet, or windy it might be!

Date:

Astronomy

Nov. 30, 2012 Rise Set
Actual Time 7:16 AM CST 4:55 PM CST
Civil Twilight 6:47 AM CST 5:25 PM CST
Nautical Twilight 6:14 AM CST 5:58 PM CST
Astronomical Twilight 5:42 AM CST 6:30 PM CST
Moon 6:51 PM CST (11/30) 8:49 AM CST (11/30)
Length of Visible Light 10h 37m
Length of Day
9h 39m
Waning Gibbous, 96% of the Moon is Illuminated
Nov 30
Waning Gibbous
Dec 6
Last Quarter
Dec 13
New
Dec 19
First Quarter
Dec 28
Full

Hourly Weather History & Observations

Time (CST) Temp. Windchill Dew Point Humidity Pressure Visibility Wind Dir Wind Speed Gust Speed Precip Events Conditions
12:53 AM 48.0 °F - 35.1 °F 61% 30.02 in 10.0 mi SSW 11.5 mph - N/A   Clear
1:53 AM 48.0 °F - 35.1 °F 61% 30.02 in 10.0 mi SSW 12.7 mph - N/A   Clear
2:53 AM 48.0 °F - 35.1 °F 61% 30.04 in 10.0 mi SW 11.5 mph - N/A   Clear
3:53 AM 48.0 °F - 35.1 °F 61% 30.04 in 10.0 mi SW 10.4 mph - N/A   Clear
4:53 AM 46.9 °F - 35.1 °F 63% 30.04 in 10.0 mi SW 11.5 mph - N/A   Clear
5:53 AM 45.0 °F 39.3 °F 34.0 °F 65% 30.05 in 10.0 mi SW 11.5 mph - N/A   Clear
6:53 AM 44.1 °F 40.8 °F 34.0 °F 68% 30.06 in 10.0 mi WSW 5.8 mph - N/A   Clear
7:53 AM 45.0 °F 41.8 °F 34.0 °F 65% 30.08 in 10.0 mi WSW 5.8 mph - N/A   Clear
8:53 AM 48.0 °F - 35.1 °F 61% 30.09 in 10.0 mi SW 11.5 mph - N/A   Clear
9:53 AM 50.0 °F - 36.0 °F 59% 30.09 in 10.0 mi WSW 11.5 mph - N/A   Clear
10:53 AM 54.0 °F - 37.0 °F 53% 30.09 in 10.0 mi SW 10.4 mph - N/A   Clear
11:53 AM 57.0 °F - 37.9 °F 49% 30.08 in 10.0 mi SW 9.2 mph - N/A   Clear
12:53 PM 59.0 °F - 37.9 °F 46% 30.06 in 10.0 mi West 6.9 mph - N/A   Clear
1:53 PM 62.1 °F - 37.9 °F 41% 30.04 in 10.0 mi WSW 6.9 mph - N/A   Clear
2:53 PM 63.0 °F - 37.9 °F 40% 30.03 in 10.0 mi South 3.5 mph - N/A   Clear
3:53 PM 60.1 °F - 39.0 °F 46% 30.04 in 10.0 mi SSE 4.6 mph - N/A   Clear
4:53 PM 59.0 °F - 39.9 °F 49% 30.04 in 10.0 mi South 3.5 mph - N/A   Clear
5:53 PM 57.0 °F - 42.1 °F 57% 30.04 in 10.0 mi SSE 4.6 mph - N/A   Clear
6:53 PM 53.1 °F - 42.1 °F 66% 30.04 in 10.0 mi Calm Calm - N/A   Clear
7:53 PM 54.0 °F - 42.1 °F 64% 30.04 in 10.0 mi ESE 3.5 mph - N/A   Clear
8:53 PM 52.0 °F - 43.0 °F 71% 30.03 in 10.0 mi ESE 5.8 mph - N/A   Clear
9:53 PM 51.1 °F - 44.1 °F 77% 30.03 in 10.0 mi SE 3.5 mph - N/A   Clear
10:53 PM 51.1 °F - 45.0 °F 80% 30.02 in 10.0 mi SE 5.8 mph - N/A   Scattered Clouds
11:53 PM 54.0 °F - 46.9 °F 77% 30.01 in 10.0 mi SSE 5.8 mph - N/A   Overcast